When you browse on this site, cookies collect data to enhance your experience and personalize the content and advertising you see.
Visit our Privacy Policy to learn more. By continuing to use the site, you agree to this use of cookies and data.
  • In Netherlands
  • List of Countries
  • For 7 days
  • Water Temperature
  • Satellite Maps
  • Weather Map
  • Weather Widgets
  • user-avatar
    Login

    Hourly Weather Pyrzyce

    Today, 23 April, Tuesday

    Time Temperature Precipitation Wind Pressure Humidity
    00:00 +10°C° 0 mm 6 mps 760 mmHg 64%
    01:00 +10°C° 0 mm 4 mps 760 mmHg 67%
    02:00 +9°C° 0 mm 5 mps 759 mmHg 65%
    03:00 +9°C° 0 mm 6 mps 759 mmHg 63%
    04:00 +8°C° 0 mm 6 mps 759 mmHg 61%
    05:00 +9°C° 0 mm 7 mps 759 mmHg 60%
    06:00 +9°C° 0 mm 8 mps 759 mmHg 58%
    07:00 +10°C° 0 mm 7 mps 758 mmHg 56%
    08:00 +11°C° 0 mm 8 mps 758 mmHg 54%
    09:00 +12°C° 0 mm 9 mps 758 mmHg 51%
    10:00 +14°C° 0 mm 10 mps 757 mmHg 49%
    11:00 +14°C° 0 mm 10 mps 757 mmHg 47%
    12:00 +16°C° 0 mm 10 mps 757 mmHg 46%
    13:00 +17°C° 0 mm 10 mps 756 mmHg 45%
    14:00 +17°C° 0 mm 9 mps 756 mmHg 48%
    15:00 +17°C° 0 mm 9 mps 755 mmHg 52%
    16:00 +16°C° 0 mm 8 mps 755 mmHg 56%
    17:00 +16°C° 0.1 mm 8 mps 754 mmHg 57%
    18:00 +15°C° 0.1 mm 8 mps 754 mmHg 59%
    19:00 +15°C° 0.1 mm 8 mps 754 mmHg 60%
    20:00 +14°C° 0.1 mm 7 mps 754 mmHg 65%
    21:00 +12°C° 0.1 mm 7 mps 754 mmHg 71%
    22:00 +11°C° 0.1 mm 6 mps 754 mmHg 76%
    23:00 +11°C° 0 mm 6 mps 754 mmHg 76%

    Tomorrow, 24 April, Wednesday

    Time Temperature Precipitation Wind Pressure Humidity
    00:00 +11°C° 0 mm 6 mps 754 mmHg 76%
    01:00 +11°C° 0 mm 6 mps 753 mmHg 76%
    02:00 +10°C° 0 mm 7 mps 753 mmHg 75%
    03:00 +10°C° 0 mm 7 mps 753 mmHg 75%
    04:00 +10°C° 0 mm 7 mps 753 mmHg 74%
    05:00 +10°C° 0 mm 7 mps 753 mmHg 72%
    06:00 +11°C° 0 mm 7 mps 753 mmHg 71%
    07:00 +12°C° 0 mm 8 mps 753 mmHg 69%
    08:00 +13°C° 0 mm 8 mps 753 mmHg 66%
    09:00 +16°C° 0 mm 8 mps 753 mmHg 62%
    10:00 +17°C° 0 mm 8 mps 753 mmHg 59%
    11:00 +18°C° 0 mm 8 mps 753 mmHg 59%
    12:00 +18°C° 0 mm 8 mps 753 mmHg 59%
    13:00 +20°C° 0 mm 7 mps 753 mmHg 59%
    14:00 +20°C° 0 mm 7 mps 753 mmHg 59%
    15:00 +20°C° 0 mm 7 mps 753 mmHg 58%
    16:00 +21°C° 0 mm 7 mps 753 mmHg 58%
    17:00 +19°C° 0 mm 6 mps 753 mmHg 63%
    18:00 +17°C° 0 mm 5 mps 753 mmHg 68%
    19:00 +17°C° 0 mm 4 mps 753 mmHg 73%
    20:00 +15°C° 0 mm 5 mps 753 mmHg 75%
    21:00 +15°C° 0 mm 5 mps 753 mmHg 78%
    22:00 +14°C° 0 mm 5 mps 753 mmHg 80%
    23:00 +14°C° 0 mm 5 mps 753 mmHg 83%

    Day after tomorrow, 25 April, Thursday

    Time Temperature Precipitation Wind Pressure Humidity
    00:00 +13°C° 0 mm 4 mps 753 mmHg 85%
    01:00 +13°C° 0 mm 4 mps 754 mmHg 88%
    02:00 +12°C° 0 mm 4 mps 754 mmHg 90%
    03:00 +12°C° 0 mm 3 mps 754 mmHg 92%
    04:00 +11°C° 0 mm 3 mps 754 mmHg 94%
    05:00 +12°C° 0 mm 3 mps 754 mmHg 91%
    06:00 +14°C° 0 mm 2 mps 755 mmHg 89%
    07:00 +15°C° 0 mm 2 mps 755 mmHg 86%
    08:00 +17°C° 0 mm 2 mps 755 mmHg 79%
    09:00 +19°C° 0 mm 2 mps 756 mmHg 71%
    10:00 +21°C° 0 mm 2 mps 756 mmHg 64%
    11:00 +23°C° 0 mm 2 mps 756 mmHg 57%
    12:00 +24°C° 0 mm 2 mps 757 mmHg 50%
    13:00 +25°C° 0 mm 2 mps 757 mmHg 44%
    14:00 +25°C° 0 mm 2 mps 757 mmHg 44%
    15:00 +25°C° 0 mm 3 mps 756 mmHg 44%
    16:00 +25°C° 0 mm 3 mps 756 mmHg 44%
    17:00 +22°C° 0 mm 3 mps 756 mmHg 56%
    18:00 +21°C° 0 mm 3 mps 756 mmHg 68%
    19:00 +19°C° 0 mm 4 mps 756 mmHg 79%
    20:00 +17°C° 0 mm 4 mps 756 mmHg 84%
    21:00 +15°C° 0 mm 4 mps 756 mmHg 89%
    22:00 +14°C° 0 mm 3 mps 757 mmHg 94%
    23:00 +14°C° 0 mm 3 mps 756 mmHg 93%

    26 April, Friday

    Time Temperature Precipitation Wind Pressure Humidity
    00:00 +14°C° 0 mm 3 mps 756 mmHg 93%
    01:00 +14°C° 0 mm 3 mps 756 mmHg 92%
    02:00 +14°C° 0 mm 3 mps 755 mmHg 92%
    03:00 +14°C° 0 mm 3 mps 755 mmHg 92%
    04:00 +14°C° 0 mm 3 mps 754 mmHg 92%
    05:00 +16°C° 0 mm 3 mps 754 mmHg 87%
    06:00 +15°C° 0 mm 4 mps 754 mmHg 83%
    07:00 +17°C° 0 mm 4 mps 753 mmHg 79%
    08:00 +19°C° 0 mm 4 mps 753 mmHg 73%
    09:00 +21°C° 0 mm 4 mps 753 mmHg 67%
    10:00 +23°C° 0 mm 4 mps 753 mmHg 61%
    11:00 +25°C° 0 mm 4 mps 753 mmHg 56%
    12:00 +26°C° 0 mm 3 mps 753 mmHg 52%
    13:00 +27°C° 0 mm 3 mps 752 mmHg 47%
    14:00 +27°C° 0.3 mm 3 mps 752 mmHg 50%
    15:00 +26°C° 0.3 mm 3 mps 752 mmHg 54%
    16:00 +26°C° 0.3 mm 3 mps 752 mmHg 57%
    17:00 +22°C° 0.9 mm 4 mps 752 mmHg 69%
    18:00 +20°C° 0.9 mm 5 mps 752 mmHg 80%
    19:00 +16°C° 0.9 mm 6 mps 752 mmHg 92%
    20:00 +15°C° 0.8 mm 6 mps 753 mmHg 92%
    21:00 +14°C° 0.8 mm 5 mps 753 mmHg 92%
    22:00 +13°C° 0.8 mm 5 mps 753 mmHg 93%
    23:00 +13°C° 0.4 mm 5 mps 753 mmHg 92%

    27 April, Saturday

    Time Temperature Precipitation Wind Pressure Humidity
    00:00 +12°C° 0.4 mm 5 mps 753 mmHg 91%
    01:00 +10°C° 0.4 mm 5 mps 753 mmHg 91%
    02:00 +10°C° 0 mm 5 mps 753 mmHg 89%
    03:00 +9°C° 0 mm 5 mps 753 mmHg 88%
    04:00 +9°C° 0 mm 5 mps 753 mmHg 86%
    05:00 +9°C° 0.4 mm 5 mps 753 mmHg 85%
    06:00 +9°C° 0.4 mm 5 mps 754 mmHg 84%
    07:00 +9°C° 0.4 mm 5 mps 754 mmHg 83%
    08:00 +9°C° 1 mm 5 mps 754 mmHg 84%
    09:00 +9°C° 1 mm 5 mps 754 mmHg 85%
    10:00 +9°C° 1 mm 5 mps 755 mmHg 86%
    11:00 +10°C° 0.1 mm 5 mps 755 mmHg 83%
    12:00 +12°C° 0.1 mm 5 mps 755 mmHg 79%
    13:00 +13°C° 0.1 mm 5 mps 755 mmHg 76%
    14:00 +13°C° 0.2 mm 4 mps 755 mmHg 76%
    15:00 +13°C° 0.2 mm 4 mps 755 mmHg 76%
    16:00 +13°C° 0.2 mm 3 mps 755 mmHg 77%
    17:00 +12°C° 0.2 mm 3 mps 755 mmHg 81%
    18:00 +13°C° 0.2 mm 2 mps 755 mmHg 85%
    19:00 +12°C° 0.2 mm 2 mps 755 mmHg 90%
    20:00 +10°C° 0 mm 2 mps 755 mmHg 91%
    21:00 +10°C° 0 mm 2 mps 756 mmHg 93%
    22:00 +10°C° 0 mm 1 mps 756 mmHg 94%
    23:00 +8°C° 0 mm 2 mps 756 mmHg 95%

    28 April, Sunday

    Time Temperature Precipitation Wind Pressure Humidity
    00:00 +8°C° 0 mm 2 mps 756 mmHg 95%
    01:00 +7°C° 0 mm 3 mps 756 mmHg 96%
    02:00 +7°C° 0 mm 3 mps 757 mmHg 96%
    03:00 +7°C° 0 mm 3 mps 757 mmHg 96%
    04:00 +7°C° 0 mm 3 mps 757 mmHg 96%
    05:00 +7°C° 0 mm 3 mps 757 mmHg 94%
    06:00 +7°C° 0 mm 4 mps 757 mmHg 91%
    07:00 +8°C° 0 mm 4 mps 757 mmHg 89%
    08:00 +8°C° 0 mm 4 mps 758 mmHg 86%
    09:00 +9°C° 0 mm 5 mps 758 mmHg 84%
    10:00 +9°C° 0 mm 5 mps 758 mmHg 82%
    11:00 +9°C° 0 mm 5 mps 758 mmHg 81%
    12:00 +9°C° 0 mm 5 mps 758 mmHg 79%
    13:00 +9°C° 0 mm 5 mps 758 mmHg 78%
    14:00 +10°C° 0 mm 5 mps 758 mmHg 75%
    15:00 +12°C° 0 mm 5 mps 758 mmHg 72%
    16:00 +13°C° 0 mm 4 mps 758 mmHg 69%
    17:00 +12°C° 0.1 mm 4 mps 758 mmHg 74%
    18:00 +11°C° 0.1 mm 3 mps 759 mmHg 80%
    19:00 +10°C° 0.1 mm 2 mps 759 mmHg 85%
    20:00 +10°C° 0.1 mm 2 mps 759 mmHg 87%
    21:00 +9°C° 0.1 mm 2 mps 759 mmHg 90%
    22:00 +8°C° 0.1 mm 2 mps 759 mmHg 93%
    23:00 +8°C° 0 mm 2 mps 759 mmHg 94%
    Show more